Date String (YYYY-MM-DD hh:mm:ss) UTC,Instrument flags,absolute air pressure of the measurement (hPa),sample flow rate (lpm),inlet stack bypass flow (lpm),air temperature of the measurement (°C),ambient temperature measured by the external sensor (°C),aerosol sample conditioner tube jacket temperature (°C),OPC LED temperature (°C),internal box temperature (°C),relative humidity of the measurement (%),span deviation,mass concentration of particles derived from Lorenz-Mie calculation of OPC scattering (μg/m³),mass concentration of particles derived from Lorenz-Mie calculation of OPC scattering (μg/m³),mass concentration of particles derived from Lorenz-Mie calculation of OPC scattering (μg/m³)
DateTimeUTC,F1_M11,P_M11,Q1_M11,Q2_M11,T1_M11,T2_M11,T3_M11,T4_M11,T5_M11,U1_M11,ZSPAN_M11,X0_M11,X2_M11,X1_M11
2023-07-03 09:00:00,SystemResetWarning,0831.8,5.00,000.00,029.6,028.4,000.0,038.1,031.2,21.2,0000.0,0009.94,0004.53,0004.15
2023-07-03 09:01:00,SystemResetWarning,0831.9,5.00,000.00,029.6,028.4,000.0,038.1,031.2,21.2,0000.0,0009.98,0004.54,0004.13
2023-07-03 09:02:00,SystemResetWarning,0831.8,5.00,000.00,029.7,028.4,000.0,038.2,031.2,21.2,0000.0,0009.96,0004.55,0004.13
2023-07-03 09:03:00,SystemResetWarning,0831.9,4.99,000.00,029.7,028.5,000.0,038.2,031.3,21.2,0000.0,0009.99,0004.57,0004.13
2023-07-03 09:04:00,SystemResetWarning,0832.0,5.00,000.00,029.7,028.5,000.0,038.2,031.2,21.0,0000.0,0009.84,0004.58,0004.13
2023-07-03 09:05:00,SystemResetWarning,0832.1,5.00,000.00,029.7,028.5,000.0,038.2,031.3,21.0,0000.0,0009.09,0004.57,0004.12
2023-07-03 09:06:00,SystemResetWarning,0832.3,5.00,000.00,029.7,028.5,000.0,038.2,031.3,21.1,-000.5,0008.93,0004.55,0004.11
2023-07-03 09:07:00,SystemResetWarning,0832.2,5.00,000.00,029.8,028.5,000.0,038.2,031.3,21.1,-000.6,0008.67,0004.53,0004.11
2023-07-03 09:08:00,SystemResetWarning,0832.1,5.00,000.00,029.8,028.5,000.0,038.3,031.3,21.1,0000.0,0008.74,0004.52,0004.10
2023-07-03 09:09:00,SystemResetWarning,0832.2,5.00,000.00,029.8,028.5,000.0,038.3,031.3,21.0,0000.0,0008.68,0004.51,0004.10
2023-07-03 09:10:00,SystemResetWarning,0831.8,5.01,000.00,029.8,028.6,000.0,038.3,031.4,21.0,0000.0,0008.29,0004.53,0004.11
2023-07-03 09:11:00,SystemResetWarning,0831.8,5.01,000.00,029.8,028.6,000.0,038.3,031.4,20.9,0000.0,0007.66,0004.50,0004.10
2023-07-03 09:12:00,SystemResetWarning,0831.9,5.00,000.00,029.8,028.6,000.0,038.3,031.4,20.9,0000.0,0007.60,0004.49,0004.11
2023-07-03 09:13:00,SystemResetWarning,0831.7,4.99,000.00,029.8,028.2,000.0,038.3,031.4,20.9,0000.0,0007.58,0004.49,0004.12
2023-07-03 09:14:00,SystemResetWarning,0831.7,5.00,000.00,029.8,026.2,000.0,038.2,031.2,20.9,0000.0,0007.79,0004.50,0004.12
2023-07-03 09:15:00,SystemResetWarning,0831.7,5.00,000.00,029.7,025.1,000.0,038.1,030.9,21.0,0000.0,0007.93,0004.51,0004.13
2023-07-03 09:16:00,SystemResetWarning,0831.7,5.01,000.00,029.6,025.2,000.0,038.1,030.6,21.2,0000.0,0007.88,0004.50,0004.13
2023-07-03 09:17:00,SystemResetWarning,0831.6,5.01,000.00,029.4,025.5,000.0,038.1,030.5,21.3,0000.0,0007.78,0004.50,0004.13
2023-07-03 09:18:00,SystemResetWarning,0831.6,5.00,000.00,029.4,026.0,000.0,038.1,030.6,21.4,0000.0,0007.80,0004.52,0004.14
2023-07-03 09:19:00,SystemResetWarning,0831.7,4.99,000.00,029.4,026.4,000.0,038.1,030.7,21.5,0000.0,0007.72,0004.51,0004.14
2023-07-03 09:20:00,SystemResetWarning,0831.7,5.00,000.00,029.4,026.7,000.0,038.1,030.7,21.5,0000.0,0007.69,0004.49,0004.12
2023-07-03 09:21:00,SystemResetWarning,0831.7,4.99,000.00,029.3,027.0,000.0,038.0,030.7,21.4,0000.0,0007.65,0004.49,0004.13
2023-07-03 09:22:00,SystemResetWarning,0831.7,4.99,000.00,029.3,027.2,000.0,038.0,030.8,21.5,0000.0,0007.60,0004.49,0004.13
2023-07-03 09:23:00,SystemResetWarning,0831.7,5.00,000.00,029.4,027.4,000.0,038.0,030.8,21.6,0000.0,0007.57,0004.49,0004.13
2023-07-03 09:24:00,SystemResetWarning,0831.7,5.00,000.00,029.4,027.6,000.0,038.0,030.8,21.5,0000.0,0007.84,0004.49,0004.13
2023-07-03 09:25:00,SystemResetWarning,0831.7,5.01,000.00,029.4,027.7,000.0,038.0,030.9,21.6,0000.0,0008.56,0004.49,0004.12
2023-07-03 09:26:00,SystemResetWarning,0831.7,5.01,000.00,029.4,027.8,000.0,038.0,030.9,21.4,0000.0,0008.39,0004.49,0004.11
2023-07-03 09:27:00,SystemResetWarning,0831.7,5.00,000.00,029.4,027.9,000.0,038.0,030.9,21.3,0000.0,0008.39,0004.48,0004.10
2023-07-03 09:28:00,SystemResetWarning,0831.7,5.00,000.00,029.4,028.0,000.0,038.0,031.0,21.3,0000.0,0008.41,0004.48,0004.10
2023-07-03 09:29:00,SystemResetWarning,0831.7,5.00,000.00,029.4,028.0,000.0,038.0,031.0,21.3,0000.0,0008.37,0004.46,0004.09
2023-07-03 09:30:00,SystemResetWarning,0831.7,5.00,000.00,029.5,028.1,000.0,038.0,031.0,21.2,0000.0,0008.64,0004.46,0004.08
2023-07-03 09:31:00,SystemResetWarning,0831.7,5.00,000.00,029.5,028.1,000.0,038.0,031.0,21.2,0000.0,0008.71,0004.44,0004.08
2023-07-03 09:32:00,SystemResetWarning,0831.7,5.00,000.00,029.5,028.2,000.0,038.0,031.0,21.4,0000.0,0008.82,0004.45,0004.07
2023-07-03 09:33:00,SystemResetWarning,0831.7,5.00,000.00,029.5,028.2,000.0,038.0,031.1,21.3,0000.0,0008.76,0004.40,0004.05
2023-07-03 09:34:00,SystemResetWarning,0831.7,5.00,000.00,029.5,028.2,000.0,038.1,031.1,21.4,0000.0,0008.81,0004.41,0004.05
2023-07-03 09:35:00,SystemResetWarning,0831.7,5.00,000.00,029.5,028.2,000.0,038.1,031.1,21.3,0000.0,0008.53,0004.41,0004.04
2023-07-03 09:36:00,SystemResetWarning,0831.7,5.00,000.00,029.6,028.3,000.0,038.1,031.1,21.4,0000.0,0007.81,0004.40,0004.05
2023-07-03 09:37:00,SystemResetWarning,0831.7,5.00,000.00,029.6,028.3,000.0,038.1,031.1,21.5,0000.0,0007.84,0004.41,0004.04
2023-07-03 09:38:00,SystemResetWarning,0831.7,5.00,000.00,029.6,028.3,000.0,038.1,031.1,21.7,0000.0,0007.71,0004.38,0004.03
2023-07-03 09:39:00,SystemResetWarning,0831.8,5.00,000.00,029.6,028.3,000.0,038.1,031.2,21.7,0000.0,0007.81,0004.39,0004.03
2023-07-03 09:40:00,SystemResetWarning,0832.1,5.00,000.00,029.6,028.4,000.0,038.1,031.2,21.6,0000.0,0008.47,0004.41,0004.03
2023-07-03 09:41:00,SystemResetWarning,0832.2,5.00,000.00,029.6,028.4,000.0,038.1,031.2,21.8,0000.0,0008.34,0004.43,0004.03
2023-07-03 09:42:00,SystemResetWarning,0832.2,5.01,000.00,029.7,028.4,000.0,038.2,031.2,21.7,0000.0,0008.51,0004.45,0004.03
2023-07-03 09:43:00,SystemResetWarning,0832.0,5.01,000.00,029.7,028.4,000.0,038.2,031.2,22.0,0000.0,0008.67,0004.43,0004.02
2023-07-03 09:44:00,SystemResetWarning,0831.8,5.01,000.00,029.7,028.4,000.0,038.2,031.2,21.8,0000.0,0009.24,0004.45,0004.02
2023-07-03 09:45:00,SystemResetWarning,0831.9,5.00,000.00,029.7,028.4,000.0,038.2,031.2,21.4,0000.0,0009.78,0004.44,0004.01
2023-07-03 09:46:00,SystemResetWarning,0832.0,5.00,000.00,029.7,028.4,000.0,038.2,031.2,21.5,0000.0,0009.87,0004.43,0004.01
2023-07-03 09:47:00,SystemResetWarning,0832.1,5.00,000.00,029.7,028.4,000.0,038.2,031.3,21.2,0000.0,0010.01,0004.43,0004.00
2023-07-03 09:48:00,SystemResetWarning,0831.8,5.00,000.00,029.7,028.5,000.0,038.2,031.3,21.1,0000.0,0010.03,0004.43,0004.00
2023-07-03 09:49:00,SystemResetWarning,0831.8,5.01,000.00,029.8,028.5,000.0,038.3,031.3,21.5,0000.0,0010.20,0004.46,0003.99
2023-07-03 09:50:00,SystemResetWarning,0832.1,5.01,000.00,029.8,028.5,000.0,038.3,031.3,21.1,0000.0,0010.63,0004.44,0004.00
2023-07-03 09:51:00,SystemResetWarning,0831.8,5.00,000.00,029.8,028.5,000.0,038.3,031.3,21.3,0000.0,0010.10,0004.41,0003.99
2023-07-03 09:52:00,SystemResetWarning,0831.9,5.00,000.00,029.8,028.5,000.0,038.3,031.3,21.5,0000.0,0010.04,0004.41,0003.99
2023-07-03 09:53:00,SystemResetWarning,0831.8,5.01,000.00,029.8,028.5,000.0,038.3,031.3,21.5,0000.0,0010.12,0004.41,0003.99
2023-07-03 09:54:00,SystemResetWarning,0831.8,5.00,000.00,029.8,028.5,000.0,038.3,031.3,20.9,0000.0,0010.14,0004.40,0004.00
2023-07-03 09:55:00,SystemResetWarning,0831.8,5.00,000.00,029.8,028.5,000.0,038.3,031.3,21.1,0000.0,0010.02,0004.40,0004.00
2023-07-03 09:56:00,SystemResetWarning,0831.8,5.00,000.00,029.8,028.5,000.0,038.4,031.4,20.9,0000.0,0010.17,0004.40,0004.00
2023-07-03 09:57:00,SystemResetWarning,0831.8,4.99,000.00,029.8,028.5,000.0,038.4,031.4,20.9,0000.0,0010.58,0004.41,0004.00
2023-07-03 09:58:00,SystemResetWarning,0831.9,5.00,000.00,029.9,028.5,000.0,038.4,031.4,20.7,0000.0,0010.56,0004.40,0004.01
2023-07-03 09:59:00,SystemResetWarning,0831.9,5.00,000.00,029.9,028.6,000.0,038.4,031.4,20.8,0000.0,0010.52,0004.40,0004.02
